{"data":{"norad_id":62804,"epoch":"2026-09-19T20:28:46.134336Z","epoch_age_seconds":74108,"freshness":"FRESH","line1":"1 62804U 25017A   26262.85331174  .00000111  00000+0  00000+0 0  9996","line2":"2 62804   0.5856 305.2334 0003167 323.0607  56.0544  1.00271066  6221","mean_motion":1.00271066,"eccentricity":0.0003167,"inclination_deg":0.5856,"raan_deg":305.2334,"arg_perigee_deg":323.0607,"mean_anomaly_deg":56.0544,"bstar":0,"rev_number":622,"period_min":1436.1072016528,"perigee_km":35773.442889748,"apogee_km":35800.150158643,"semimajor_km":42164.933524196,"source":"CELESTRAK","updated_at":"2026-09-20T09:00:35.341837Z"}}